Home > Weather > Quesnel > Past weeks

Flag for Canada Weather for the Past 2 Weeks in Quesnel, British Columbia, Canada

Now
28 °F

Ice fog.


Feels Like: 28 °F
Forecast: 24 / 38 °F
Wind: 2 mph from North

Location: Quesnel Airport

Current Time: Feb 11, 2016 at 9:41:15 AM

Latest Report: Feb 11, 2016 at 9:00 AM


Visibility: 0 mi

Pressure: 30.40 "Hg

Humidity: 100%

Dew point: 28 °F

Location of QuesnelLocation

Historic Weather in Quesnel — Graph

°F

Quesnel Temperature Yesterday

Maximum temperature yesterday: 45 °F (at 4:00 PM)
Minimum temperature yesterday: 34 °F (at 7:00 AM)
Average temperature yesterday: 38 °F

High & Low Weather Summary for the Past Weeks

 TemperatureHumidityPressure
High50 °F (Jan 28, 2:00 PM)100% (Jan 29, 7:00 AM)30.56 "Hg (Jan 29, 7:00 AM)
Low12 °F (Feb 3, 6:00 AM)29% (Feb 6, 3:00 PM)29.44 "Hg (Jan 28, 6:00 AM)
Average33 °F83%30.05 "Hg
* Reported Jan 27 8:00 AM — Feb 11 8:00 AM, Quesnel, Weather by CustomWeather, © 2016

Note: Actual official high and low records may vary slightly from our data, if they occured in-between our weather recording intervals... More about our weather records

Advertising

Quesnel Weather History for the Previous 24 Hours

 ConditionsComfort  
Time TempWeatherWind HumidityBarometerVisibility
8:00 AM
Thu, Feb 11
28 °FIce fog.3 mph100%30.39 "Hg0 mi
7:00 AM28 °FIce fog.2 mph100%30.38 "Hg2 mi
6:46 AM28 °FIce fog.2 mph100%30.37 "Hg2 mi
6:00 AM28 °FIce fog.2 mph100%30.36 "Hg5 mi
5:02 AM27 °FIce fog.2 mph100%30.35 "Hg6 mi
4:56 AM27 °FIce fog.2 mph100%30.35 "Hg3 mi
4:00 AM28 °FClear.No wind100%30.35 "Hg8 mi
3:00 AM28 °FClear.3 mph100%30.33 "Hg7 mi
2:00 AM28 °FClear.2 mph100%30.29 "Hg7 mi
1:00 AM30 °FClear.No wind100%30.27 "Hg8 mi
12:00 AM32 °FPassing clouds.2 mph100%30.23 "Hg9 mi
11:00 PM
Wed, Feb 10
36 °FPartly cloudy.3 mph93%30.20 "Hg9 mi
10:00 PM37 °FOvercast.2 mph87%30.16 "Hg9 mi
9:00 PM37 °FOvercast.5 mph87%30.14 "Hg9 mi
8:00 PM39 °FMostly cloudy.5 mph87%30.07 "Hg9 mi
7:00 PM36 °FOvercast.No wind93%30.05 "Hg9 mi
6:00 PM37 °FMostly cloudy.No wind87%30.02 "Hg9 mi
5:00 PM39 °FOvercast.No wind81%30.01 "Hg9 mi
4:00 PM45 °FOvercast.2 mph66%30.00 "Hg9 mi
3:00 PM41 °FMostly cloudy.3 mph76%30.01 "Hg9 mi
2:00 PM41 °FPartly sunny.3 mph76%30.01 "Hg9 mi
1:00 PM41 °FMostly cloudy.3 mph76%30.03 "Hg9 mi
12:00 PM41 °FSunny.2 mph76%30.03 "Hg9 mi
11:00 AM37 °FLight rain. Mostly cloudy.3 mph87%30.04 "Hg9 mi
10:00 AM39 °FOvercast.7 mph81%30.07 "Hg9 mi
9:00 AM36 °FOvercast.3 mph87%30.07 "Hg9 mi
Weather by CustomWeather, © 2016

See weather overviewHow to use our weather pages